Theta_e
321 321 322 322 323 323 324 323 325 325 323 322 321 321 317 316 318 317 316 316 315 312 311 312 311 310 310 310 309 308 309 309 309 310 314 310 305 306 304 304 305 304 305 304 303 302 303 304 304 304 304 304 304 304 303 302 302 302 301 300 299 299 299 300 302 305 310 313 314 315 314 315 316 317 317 315 314 317 319 316 312 310 307 309 319 328 331 331 331 332 332 333 332 331 332 332 332
320 322 322 322 323 323 325 324 325 324 321 321 320 318 316 314 316 316 314 314 313 311 311 312 312 311 310 310 309 309 309 308 308 308 309 307 306 305 305 305 304 304 305 303 303 303 304 304 304 304 304 304 304 304 303 303 303 302 301 300 299 299 299 300 302 306 311 314 314 315 315 315 315 315 316 317 315 315 317 317 315 312 311 307 310 320 328 331 330 331 333 333 332 332 332 332 332
320 322 323 322 323 323 324 324 324 322 320 320 318 316 315 315 315 314 313 312 311 310 311 311 313 311 310 311 309 308 309 308 307 307 306 306 306 305 305 304 304 304 304 303 303 303 304 304 304 304 304 304 304 304 303 303 303 303 302 300 299 299 300 301 303 307 312 314 315 315 316 317 316 315 314 315 316 316 316 316 316 313 313 311 308 310 320 329 330 331 332 333 332 332 332 332 332
321 322 323 322 323 324 324 326 324 322 320 319 317 315 316 315 313 312 311 311 310 310 311 311 312 312 310 311 308 308 309 308 307 306 306 306 305 305 305 304 303 303 303 303 303 303 304 304 304 304 304 304 303 303 303 303 303 303 303 300 299 299 300 301 303 307 313 315 315 315 316 316 316 316 315 313 314 316 316 316 316 314 313 313 312 309 310 320 328 331 331 332 332 332 333 332 332
322 322 322 322 323 324 324 324 323 322 318 317 317 315 314 313 311 310 310 309 309 309 310 310 311 311 310 309 308 308 309 307 306 306 305 306 305 305 304 304 303 302 303 303 303 303 304 304 304 304 304 303 303 303 303 303 303 303 303 301 299 299 300 301 303 307 312 315 315 315 316 316 316 315 315 315 312 313 315 316 315 314 313 313 316 315 311 312 321 328 330 331 332 332 332 332 332
321 321 322 321 321 322 323 321 319 319 315 315 316 314 313 312 311 310 309 309 308 308 308 309 310 310 310 310 308 308 308 307 306 306 306 305 305 305 304 304 303 303 303 303 303 304 304 304 304 304 304 303 303 303 303 303 303 303 303 302 299 299 300 301 302 307 312 315 315 315 316 316 316 315 315 315 313 313 313 314 314 313 312 312 316 318 316 311 313 323 329 330 331 332 332 332 332
321 322 321 321 321 320 323 320 317 316 313 314 314 312 312 310 310 310 310 309 308 308 308 309 308 308 310 310 308 308 308 307 306 306 305 305 305 304 304 304 304 304 304 304 304 304 304 304 304 304 303 303 303 303 303 303 303 303 304 302 299 299 300 301 302 307 313 314 315 315 315 316 316 316 314 313 312 313 313 312 313 313 312 312 314 317 318 315 311 315 325 329 330 331 331 332 333
321 321 321 323 322 320 322 319 316 315 312 312 312 311 311 309 309 309 309 309 308 308 308 308 307 308 310 309 309 308 308 307 306 305 305 305 305 304 304 304 304 304 304 304 304 305 305 304 304 303 303 303 302 303 302 303 303 303 304 302 299 299 300 300 302 309 314 315 315 315 315 316 316 315 313 312 312 312 313 312 312 312 312 312 314 316 317 317 313 311 319 327 330 330 330 330 333
320 320 320 323 321 319 319 316 314 313 312 311 310 310 309 308 308 308 308 308 307 307 308 308 307 308 309 309 309 308 308 307 305 305 305 305 305 304 304 304 304 304 304 304 305 305 304 304 304 303 303 303 302 302 302 302 303 303 303 302 299 299 299 299 302 310 315 315 315 315 316 316 316 314 312 313 314 313 312 312 312 311 311 311 313 315 316 316 315 311 313 323 328 330 329 330 332
319 319 320 322 320 317 316 315 315 313 311 310 310 309 308 307 307 307 308 308 307 307 308 307 307 308 309 309 309 308 308 307 305 306 306 305 304 305 305 304 304 304 305 305 305 305 304 304 303 303 303 302 302 302 302 302 302 303 303 301 299 298 299 299 303 312 315 315 315 315 316 316 315 314 314 314 314 312 311 311 311 311 311 310 311 313 314 315 315 313 310 317 325 329 329 328 330
319 319 319 320 318 316 316 316 314 312 311 310 309 308 307 307 307 307 308 308 307 308 308 307 308 308 308 309 308 308 307 306 306 306 305 305 304 304 304 304 304 305 305 305 305 304 304 304 303 303 303 302 302 302 301 302 302 303 303 300 298 298 299 298 304 312 315 315 315 315 316 316 315 315 315 315 313 310 309 310 311 310 310 309 309 311 312 313 314 313 310 313 321 328 329 327 328
320 320 319 320 319 317 317 316 313 312 310 309 309 308 307 307 307 308 308 308 308 308 308 307 308 308 308 309 308 307 307 306 306 305 305 305 304 304 304 304 304 305 305 305 305 304 304 304 303 303 302 302 302 302 302 301 302 302 302 300 298 298 298 298 303 311 315 315 315 315 316 317 316 316 316 315 311 309 309 309 309 309 309 309 309 310 311 312 313 313 311 311 316 324 328 328 328
320 321 320 321 321 318 316 315 313 313 311 310 310 308 307 307 308 309 308 308 308 308 309 307 307 307 308 309 308 307 307 306 306 305 305 305 304 304 304 305 305 305 305 305 305 304 304 303 303 303 302 302 302 302 302 301 301 302 302 300 298 298 298 298 302 310 314 315 315 314 316 317 316 316 316 313 310 310 309 308 308 308 308 308 308 309 310 311 312 313 312 311 313 319 326 329 328
318 319 320 320 320 318 317 315 313 314 312 310 310 308 307 307 308 308 308 308 308 309 308 307 307 307 308 308 308 308 306 306 306 305 305 305 304 305 306 306 305 305 305 305 305 304 304 303 303 303 302 302 302 302 302 301 301 301 302 300 298 298 298 298 301 307 312 315 315 314 315 316 316 316 314 311 310 311 310 308 307 307 307 307 308 309 310 310 311 313 312 311 311 314 322 328 328
316 317 319 320 318 317 317 315 314 315 313 309 309 308 307 307 308 308 308 309 309 308 308 307 306 307 308 308 308 307 307 306 305 305 304 305 304 305 306 306 306 305 305 305 305 305 304 304 303 303 302 302 302 302 302 301 301 301 302 301 299 298 298 298 299 303 309 314 314 314 315 316 316 314 312 311 309 308 309 308 307 306 306 306 307 308 309 310 311 312 313 311 309 310 317 325 328
314 317 320 319 317 316 316 315 315 315 312 309 308 307 307 307 307 307 308 308 308 308 307 307 306 307 308 307 307 307 307 306 305 305 304 305 304 305 307 306 306 306 305 305 305 305 304 304 303 303 302 302 302 302 302 302 301 301 302 301 300 299 298 298 298 300 305 311 314 314 315 316 316 313 313 313 310 306 306 307 307 307 306 306 306 307 308 309 311 311 312 310 308 308 312 321 327
314 319 321 319 317 316 315 315 314 313 310 308 307 307 308 308 307 307 307 307 307 308 308 308 307 307 307 307 307 307 306 305 305 305 304 305 304 305 307 307 306 306 305 305 305 305 304 304 303 303 302 302 302 302 302 302 302 301 301 301 301 299 298 298 297 299 301 307 314 315 314 316 315 315 314 314 311 307 305 306 306 306 305 305 306 306 308 309 311 311 310 308 307 306 309 316 325
315 322 322 318 317 314 312 311 311 311 309 307 307 306 309 309 308 308 307 307 307 307 308 308 308 307 307 307 307 306 306 306 305 305 305 304 304 306 308 307 306 306 306 305 305 304 304 304 303 303 302 302 302 302 302 302 302 301 301 301 302 300 299 299 298 298 298 303 313 314 314 316 316 316 315 313 311 307 307 308 307 306 306 306 307 308 309 311 311 311 310 308 306 306 308 315 324
315 321 322 316 313 310 309 309 309 310 309 308 307 307 309 309 309 308 308 308 308 308 309 308 308 308 308 308 307 307 306 306 305 305 305 305 306 308 308 307 306 306 306 305 304 304 304 304 303 303 303 302 302 302 302 302 302 302 301 301 301 301 300 299 298 298 297 300 311 314 314 316 316 315 315 313 311 308 307 310 308 307 308 308 309 309 309 310 310 311 309 308 307 306 307 314 323
314 317 318 313 309 308 308 309 308 309 309 308 308 308 308 309 308 308 308 308 308 309 309 308 309 308 308 308 308 307 307 306 306 305 306 307 307 308 307 307 306 306 305 304 304 304 304 304 303 303 303 303 302 302 302 302 302 302 302 301 301 302 301 299 299 298 298 299 307 314 314 315 317 316 315 314 313 311 308 310 309 308 310 310 310 310 309 309 309 310 310 308 307 306 306 312 321
312 312 312 310 308 308 307 308 308 308 309 309 309 307 308 308 308 307 307 307 308 308 308 307 307 307 307 307 307 307 307 307 306 306 307 307 307 307 307 306 306 305 304 304 304 304 304 304 303 303 303 303 303 302 302 302 302 303 302 302 301 302 301 300 300 298 298 298 302 312 314 314 317 316 317 315 314 313 309 309 310 309 310 310 311 311 311 310 307 307 308 307 307 306 305 308 314
310 309 309 309 309 308 306 307 307 307 308 308 308 307 308 308 307 307 307 307 309 309 308 307 307 306 307 307 307 307 307 306 306 307 307 307 307 307 307 306 305 304 304 303 304 304 304 303 303 303 303 303 303 303 303 303 303 303 303 302 301 301 301 301 300 299 299 298 298 306 313 315 316 316 317 316 314 315 312 310 309 310 311 312 313 312 313 313 310 308 306 304 304 305 305 308 310
309 308 308 308 308 307 306 306 306 307 308 308 308 308 307 307 308 308 308 308 308 308 308 308 307 307 306 306 306 306 306 306 306 307 307 307 307 307 306 304 304 304 304 304 304 303 303 303 303 303 303 303 303 303 303 303 303 303 303 303 302 301 301 301 300 300 299 299 297 300 309 315 315 316 317 315 314 315 315 313 311 311 311 312 313 312 313 314 313 314 313 309 308 307 308 312 312
309 308 307 307 307 307 306 305 305 306 307 307 307 307 307 308 309 308 308 308 308 308 308 308 307 306 306 306 306 305 306 306 306 307 307 307 306 306 305 304 304 304 305 305 304 303 303 303 303 304 304 304 303 304 303 304 303 303 303 303 303 302 301 301 301 301 299 299 298 297 305 313 314 316 316 315 314 315 315 315 315 314 314 314 313 313 313 315 317 318 319 319 319 315 313 313 313
308 308 307 307 306 306 305 306 306 306 307 307 306 307 308 308 308 307 307 308 308 308 308 308 307 306 306 306 306 306 306 306 306 307 307 307 307 306 305 305 305 305 305 305 304 303 303 303 303 303 304 304 304 304 304 304 304 303 304 303 303 303 302 301 301 301 300 299 299 298 300 308 313 315 316 315 314 316 315 315 317 316 316 315 314 314 314 316 319 317 317 319 321 318 313 313 315
308 307 307 307 306 307 306 307 306 306 307 307 307 307 308 308 308 307 308 308 308 308 308 307 307 306 306 306 306 307 307 307 307 307 306 306 306 306 306 306 306 306 305 305 304 304 304 304 304 304 304 304 304 304 304 303 304 303 303 303 303 303 302 302 301 301 301 300 299 299 298 301 310 315 316 316 315 316 317 316 317 317 317 316 314 316 316 316 317 318 318 317 318 317 315 317 321
308 307 307 307 307 307 307 307 307 306 307 307 307 308 308 308 308 308 309 309 308 308 308 307 307 307 307 307 307 307 307 307 307 306 306 306 306 306 306 306 306 306 305 305 305 305 305 305 305 306 306 305 305 304 304 304 303 303 303 303 303 303 303 302 302 301 301 301 299 300 299 298 305 313 315 316 316 316 317 317 318 318 319 318 317 318 318 318 316 317 318 316 316 319 320 320 323
307 308 307 307 307 307 307 307 307 307 307 307 307 307 307 308 308 308 309 309 308 307 308 308 307 307 307 307 307 307 307 307 307 307 307 306 306 306 306 306 306 306 306 306 306 306 306 306 306 307 306 306 306 305 305 304 304 304 303 303 303 303 303 303 302 301 301 301 300 300 300 298 301 309 314 316 316 315 316 317 318 318 319 319 320 319 319 320 318 316 317 316 315 319 322 323 325
307 308 308 307 307 308 307 307 308 307 308 307 307 309 311 309 309 310 309 309 308 308 308 308 308 308 308 308 308 307 307 307 307 307 307 307 307 306 306 306 306 306 306 306 307 307 307 307 307 307 307 306 306 306 305 305 304 304 303 303 303 303 303 303 302 302 301 301 301 300 300 299 298 303 310 314 316 316 316 317 317 318 318 319 320 321 320 321 321 319 319 319 317 318 322 323 324
308 309 309 308 308 309 308 308 308 307 308 308 308 315 316 311 310 310 309 309 308 308 308 308 308 308 309 308 308 308 308 307 307 307 307 307 307 306 306 306 306 307 307 307 307 307 307 307 307 307 307 306 306 306 305 305 304 304 304 303 303 303 303 303 303 302 302 301 301 301 300 300 299 299 304 310 314 316 316 317 317 317 318 319 319 320 321 321 322 322 322 322 321 321 322 322 322
310 311 311 312 313 312 309 308 309 308 309 308 308 315 317 313 311 310 309 308 308 308 308 308 309 309 309 309 309 309 308 308 308 308 307 307 307 307 307 306 306 307 307 307 307 307 307 306 307 306 306 306 306 306 305 305 304 304 304 304 304 303 303 303 303 303 302 302 301 301 301 300 300 299 299 304 310 314 316 316 317 316 317 318 319 319 320 321 322 322 322 322 322 323 324 324 324
311 315 316 315 315 314 309 308 308 309 309 308 309 314 315 313 311 309 308 308 308 308 308 309 309 309 310 309 309 309 309 309 308 308 308 307 307 307 307 306 306 306 306 307 307 307 307 307 306 306 306 306 305 305 305 305 304 304 304 305 304 304 304 303 303 303 303 303 302 301 301 300 301 300 299 299 304 309 313 315 316 316 317 318 318 319 319 320 321 322 323 322 322 323 324 325 325
313 316 318 317 316 316 311 308 308 308 308 308 310 312 313 312 310 309 309 308 308 308 308 309 310 310 310 310 310 309 309 309 309 308 308 308 307 307 307 307 306 306 306 306 306 306 306 306 306 306 306 306 305 305 305 305 304 304 304 305 305 305 305 304 303 303 303 303 303 302 301 301 301 300 300 299 299 302 307 311 314 315 316 317 318 319 319 319 319 320 321 321 322 323 323 325 325
316 317 318 317 315 316 315 311 308 308 308 309 310 310 311 311 310 309 309 308 308 308 309 309 310 310 310 310 310 310 309 309 309 309 309 308 308 307 308 307 306 306 305 306 306 306 306 306 306 306 306 305 305 305 305 305 304 305 305 305 305 305 305 305 304 303 303 303 303 303 302 302 301 301 300 300 299 299 301 305 309 312 314 315 317 318 319 319 319 319 320 320 320 321 322 323 324
320 319 319 319 317 317 317 313 309 307 309 310 311 311 311 312 312 311 309 309 309 309 309 310 310 310 310 310 310 310 310 310 309 309 309 309 308 308 307 307 306 306 305 306 306 306 306 306 306 306 306 306 305 305 305 305 305 304 305 304 304 305 304 305 305 304 304 303 303 303 303 303 302 301 301 300 300 299 299 300 302 306 310 313 315 316 317 318 318 318 319 319 319 319 320 321 322
318 319 319 320 319 317 315 312 308 307 309 310 311 312 312 313 313 313 311 309 309 310 310 310 310 310 310 311 310 310 310 310 310 310 309 309 308 308 307 307 306 306 306 306 306 306 306 306 306 306 305 305 305 305 305 305 305 304 304 304 304 304 304 304 304 305 305 304 303 303 303 303 303 302 301 301 301 300 300 299 299 300 304 307 311 313 315 316 317 317 317 318 318 319 319 319 319
315 317 320 320 320 318 313 310 307 307 310 312 313 313 313 313 314 314 312 310 309 310 310 311 311 311 311 311 310 310 311 310 310 310 310 309 309 308 307 307 307 307 307 306 306 306 306 306 306 306 305 305 305 305 305 304 304 304 304 304 304 304 304 304 304 304 305 304 304 303 303 303 303 303 303 302 301 301 301 300 300 299 299 301 304 308 310 313 314 315 316 316 317 317 317 318 318
314 316 320 321 320 318 313 310 308 307 311 314 314 313 313 313 314 314 311 310 311 310 310 311 311 311 312 311 311 311 311 310 310 310 310 309 309 309 308 308 307 307 307 307 307 306 306 306 305 305 305 305 305 305 305 305 304 304 304 304 304 304 304 304 304 304 304 304 304 304 303 303 303 303 303 303 302 301 301 301 300 300 300 299 300 301 304 307 309 310 312 314 315 315 316 316 317
317 318 320 321 319 316 313 311 309 308 310 314 313 312 311 312 314 314 311 311 312 311 311 311 312 312 311 312 312 311 311 310 310 310 310 309 309 309 309 309 309 308 308 307 307 307 306 306 305 305 305 305 305 305 305 305 304 304 304 304 304 304 304 304 304 304 304 304 304 304 304 304 304 303 303 303 303 302 302 301 301 301 301 300 300 299 300 301 303 304 306 309 311 312 313 314 314
317 319 320 319 315 315 316 314 311 310 310 312 311 311 312 313 314 313 311 311 312 311 312 312 312 312 312 312 311 311 311 310 309 310 310 309 308 308 309 309 309 309 308 308 307 307 307 306 306 306 306 305 305 305 304 304 304 304 304 304 304 304 304 304 304 304 304 304 304 305 305 304 304 304 303 303 303 303 303 302 301 301 301 301 301 300 300 300 300 300 301 303 306 308 310 311 313
317 316 316 315 312 311 313 313 311 311 312 311 312 316 319 318 316 314 312 311 311 311 311 311 311 312 311 311 311 311 310 309 309 310 310 309 309 308 308 308 309 309 308 308 308 308 307 307 307 306 306 306 305 305 305 304 304 304 304 304 304 304 304 303 303 303 304 304 304 305 305 304 304 304 304 304 303 303 303 303 302 302 301 301 300 300 300 300 300 300 299 300 302 305 305 307 311
319 313 311 310 310 309 310 312 313 317 318 313 314 321 325 322 318 317 313 310 311 311 311 310 310 310 310 310 310 309 309 309 310 310 310 310 309 309 308 308 308 308 308 308 307 307 307 307 307 307 307 306 306 305 305 305 304 304 304 304 304 304 304 304 303 303 303 304 304 304 305 305 304 304 304 304 304 303 303 303 303 303 302 301 301 300 300 300 300 300 300 299 299 301 301 302 306
320 312 309 309 308 310 311 313 315 321 322 315 314 319 324 325 321 317 315 313 313 313 312 311 310 310 310 310 310 309 309 309 310 311 310 310 310 309 309 308 308 308 307 307 307 307 307 307 307 307 307 307 306 306 306 305 305 305 304 304 304 304 304 304 304 303 304 304 304 304 304 304 305 304 304 304 304 304 303 303 303 303 303 302 302 301 301 300 300 300 299 299 299 299 299 299 302
320 310 307 309 309 311 312 313 316 319 318 317 318 317 320 327 324 317 316 316 315 316 315 313 311 311 311 311 311 310 310 310 310 311 310 310 310 309 309 309 308 308 308 307 307 307 307 307 307 307 307 307 306 306 306 306 306 305 305 305 305 304 304 304 304 303 304 304 304 304 304 304 305 305 304 304 304 304 304 304 303 303 303 303 303 302 302 302 301 301 300 300 299 299 299 299 300
316 307 307 309 308 310 311 313 317 317 317 321 320 316 319 327 324 315 315 318 318 318 318 316 313 312 312 311 312 311 310 310 310 310 310 310 310 309 309 309 309 308 308 308 308 307 307 307 307 307 307 307 306 306 306 306 306 306 306 305 305 305 305 304 304 304 304 303 304 304 304 304 304 305 305 304 304 304 304 304 304 304 303 303 303 303 303 303 302 302 302 301 300 300 299 299 299
310 306 307 308 308 310 311 313 317 317 320 322 317 314 319 326 323 317 318 320 319 319 319 317 314 313 313 312 312 312 311 311 310 310 310 310 310 310 309 309 309 309 308 308 308 308 308 308 307 308 307 307 307 307 306 306 306 306 306 306 305 305 305 305 305 305 304 304 303 304 304 304 304 304 305 305 305 304 304 304 304 304 304 304 304 304 303 303 303 303 303 303 302 301 301 300 300
308 308 310 311 311 312 312 314 315 319 324 320 313 312 316 321 322 321 321 319 318 317 317 317 314 313 314 313 312 312 311 311 311 311 311 310 310 309 309 309 309 309 309 308 308 308 308 308 308 308 308 307 307 307 307 306 306 306 306 306 305 305 305 305 305 305 305 304 304 304 304 304 304 304 304 305 305 304 304 304 304 304 304 304 304 304 304 304 304 304 303 303 303 303 303 302 302
307 310 313 316 318 316 316 317 317 322 325 318 313 312 314 319 320 318 317 317 317 316 315 316 315 313 313 313 312 312 311 311 311 311 310 310 310 309 309 309 308 308 308 308 309 308 308 308 308 308 308 307 307 307 307 307 306 306 306 306 306 306 306 306 306 306 306 305 305 305 304 304 304 303 304 304 304 304 304 305 304 304 304 304 304 304 304 304 304 304 304 304 303 303 303 303 303
310 314 316 321 324 320 320 322 321 323 323 315 311 311 316 322 320 316 316 316 315 315 315 315 314 312 313 312 312 312 311 311 311 310 310 310 310 309 309 309 308 308 308 308 308 308 308 308 308 308 308 308 308 307 307 307 307 307 306 306 306 306 306 306 306 306 306 306 306 305 305 305 304 304 304 304 304 304 304 304 304 305 305 304 304 304 304 304 304 304 304 304 304 303 303 303 303
315 316 317 323 325 321 322 324 322 324 324 315 309 313 321 323 319 316 317 315 313 313 313 313 313 312 312 312 312 312 312 311 311 311 310 310 310 310 310 309 309 309 308 308 308 308 308 308 308 308 309 308 308 308 307 308 307 307 307 307 307 307 307 306 306 307 306 307 306 306 306 306 306 305 305 304 304 304 304 304 304 304 305 305 305 304 304 304 304 304 304 304 304 304 303 303 303
315 313 314 320 322 320 322 324 323 325 327 319 312 316 322 320 318 318 315 313 312 312 312 312 313 312 312 313 312 312 312 311 311 311 310 310 310 309 309 309 309 309 309 308 308 308 308 308 309 309 309 308 308 308 308 308 308 308 308 308 307 307 307 307 307 307 307 307 307 307 307 307 307 307 306 306 305 305 304 305 305 305 305 305 305 305 305 304 304 304 304 304 304 304 304 303 303
314 311 315 319 318 317 321 322 320 320 324 324 320 322 323 318 319 317 313 313 312 312 312 312 312 313 312 313 312 312 312 311 311 311 310 310 310 309 309 309 309 309 309 309 309 309 309 309 309 309 309 309 309 308 309 309 309 309 309 308 308 308 308 308 307 307 307 307 307 307 307 307 307 307 307 307 306 306 306 305 305 305 305 305 305 305 305 305 305 305 305 305 305 304 304 304 304
315 315 318 315 310 314 320 320 316 316 322 326 322 323 324 321 320 317 314 315 314 312 312 312 312 313 312 313 313 312 313 312 311 310 309 309 309 309 310 309 310 310 310 310 309 309 309 309 309 309 309 309 309 309 309 309 309 309 309 309 309 308 308 308 308 308 308 307 307 307 307 307 307 307 306 306 306 306 306 306 306 306 306 306 306 306 305 305 305 305 305 305 305 305 305 305 305
315 318 314 311 310 312 317 321 321 321 323 323 320 319 322 322 320 318 316 316 315 314 313 312 313 314 313 313 313 313 313 312 311 310 309 309 309 309 309 309 309 310 310 310 310 310 310 310 309 309 309 309 309 309 309 309 309 309 309 309 309 308 308 308 308 308 308 308 308 307 307 307 307 306 306 306 306 306 306 306 306 306 306 306 306 306 306 306 305 305 306 306 306 305 305 305 305
310 313 309 311 318 318 319 320 322 323 322 324 324 320 321 324 322 318 318 318 318 316 315 314 314 314 314 313 313 313 312 310 310 310 309 309 308 309 309 309 309 310 310 309 310 310 310 310 309 309 309 309 309 309 309 309 309 309 309 308 308 308 308 308 308 308 308 308 308 308 307 307 307 306 306 306 306 306 305 305 305 306 306 306 306 306 306 306 306 306 306 306 306 305 305 306 306
307 309 308 310 315 317 318 318 319 322 323 326 327 324 324 326 323 319 319 319 318 317 318 317 314 313 313 313 312 312 311 310 310 310 309 308 309 309 308 309 309 309 309 309 309 310 309 310 309 309 309 309 309 309 309 309 309 309 308 308 308 307 307 307 307 307 307 307 307 307 307 307 307 307 307 306 306 306 306 305 305 305 305 305 305 306 306 306 306 306 306 306 306 306 305 306 306
312 314 313 313 312 312 315 316 316 319 322 323 325 327 327 324 320 319 318 319 320 319 319 318 313 313 313 312 312 311 310 310 310 309 309 308 308 308 308 308 308 308 308 308 309 309 309 309 309 309 309 309 309 309 309 309 309 308 308 307 307 307 307 307 307 306 306 306 306 306 306 306 306 306 306 306 306 306 306 306 305 305 305 305 305 305 305 305 305 306 306 306 306 306 306 306 306
311 314 314 314 314 314 319 319 315 315 318 320 321 325 328 321 317 318 316 317 317 316 315 315 313 312 312 311 311 311 310 310 309 309 309 308 308 308 308 308 308 308 308 308 308 308 308 308 308 308 308 308 308 309 309 309 309 308 308 307 307 307 307 306 306 306 306 306 306 306 305 305 305 305 305 305 305 305 305 305 305 305 305 305 305 305 305 305 305 305 305 305 306 306 306 306 306
Wind_Speed
7 5 3 2 3 1 4 7 5 3 2 3 4 2 3 3 2 3 5 4 4 6 7 5 6 7 5 2 3 4 4 4 2 1 2 1 5 7 7 14 18 17 14 12 13 13 13 15 15 17 17 18 18 18 19 19 20 20 20 20 21 21 21 21 22 23 24 25 25 25 24 24 23 23 22 22 21 20 18 17 18 20 21 23 26 25 21 17 13 10 8 10 15 20 20 18 17
9 6 3 1 2 2 5 5 2 2 3 4 4 3 3 2 2 5 7 6 5 5 4 4 4 4 3 0 1 1 3 5 4 3 1 3 4 6 10 16 16 13 13 13 13 14 14 16 17 18 18 18 18 19 19 19 20 20 21 21 21 21 22 23 24 25 26 27 27 26 25 25 24 23 22 22 21 20 19 18 17 19 20 22 25 28 27 22 17 13 9 6 12 17 19 21 19
9 8 5 2 3 5 7 3 2 3 2 4 3 3 2 3 5 7 8 7 7 5 3 3 1 2 4 2 1 2 2 5 2 2 0 5 4 8 13 15 13 12 14 13 13 15 16 17 18 19 19 19 19 19 19 19 20 21 22 21 22 22 22 24 25 26 27 27 27 27 26 25 24 24 23 21 20 20 19 19 19 19 19 20 22 26 29 27 21 18 14 9 12 17 18 21 21
8 7 6 2 7 6 5 2 2 3 2 3 3 2 2 6 6 7 8 6 6 4 3 4 1 2 5 3 3 3 2 4 1 3 1 5 8 11 14 13 12 12 14 15 15 16 17 18 18 19 19 20 20 20 20 20 21 21 21 22 22 22 23 23 25 26 26 26 26 26 26 26 25 25 24 23 22 20 19 19 20 19 19 20 20 22 27 30 27 23 20 14 12 16 17 19 21
7 5 4 1 6 4 2 1 1 3 3 1 2 3 4 6 6 7 7 5 5 4 3 5 1 2 4 2 3 3 1 1 3 4 1 4 12 13 13 12 12 12 14 16 17 17 17 18 18 19 20 20 21 21 21 22 21 21 22 22 22 22 23 24 25 26 27 27 27 27 26 26 27 26 25 25 25 22 20 19 20 20 20 19 17 18 22 27 30 29 24 19 14 15 14 15 20
6 2 1 2 4 2 2 1 3 5 2 3 3 4 5 6 6 7 6 5 4 3 2 4 2 3 2 3 1 1 2 1 2 4 5 6 12 12 12 12 11 11 14 16 16 16 17 17 18 19 20 21 22 22 22 22 22 22 22 22 22 22 23 25 26 27 28 27 28 27 26 26 26 27 25 25 25 22 21 20 20 22 22 19 16 16 19 23 29 32 29 25 19 16 13 11 17
6 2 4 4 3 1 2 2 4 4 2 5 5 5 5 7 6 4 4 4 2 3 2 3 4 4 1 2 2 4 6 3 3 6 9 8 9 11 13 12 11 12 14 15 15 16 17 17 18 19 21 21 22 22 22 22 21 21 22 22 23 23 24 25 26 27 28 28 28 28 27 27 26 27 26 25 23 21 22 21 20 21 20 18 17 16 18 20 24 31 32 30 24 20 16 10 15
6 4 4 2 1 0 1 5 4 3 2 4 7 6 6 7 5 2 2 1 1 2 1 1 3 3 1 2 2 5 6 6 7 8 10 8 8 12 12 12 12 13 14 14 16 16 16 17 18 19 20 21 22 22 22 22 21 21 21 22 22 23 23 25 26 27 28 28 27 28 29 29 28 27 26 25 23 21 21 22 20 19 18 15 17 16 17 19 21 29 33 33 31 24 17 10 17
3 5 3 2 1 1 3 4 3 3 4 4 6 6 7 6 4 1 1 3 1 2 2 2 2 2 2 4 2 4 4 6 9 9 9 8 10 12 12 12 13 14 14 15 16 15 16 16 17 18 19 21 21 22 22 22 21 20 20 21 22 22 23 25 26 27 27 27 27 28 29 29 27 26 26 25 23 21 21 21 20 19 18 15 15 17 18 18 20 26 32 35 35 27 20 15 19
6 5 3 1 1 3 3 3 3 3 4 5 6 6 5 5 3 1 1 3 3 2 2 1 2 3 5 4 4 5 6 6 8 4 6 10 12 12 12 12 13 15 15 14 14 15 15 15 17 18 19 20 21 21 21 21 20 19 20 21 21 22 23 24 25 26 26 27 28 28 29 28 26 25 26 25 24 22 21 19 18 18 18 16 15 18 19 19 19 24 30 35 37 32 24 18 16
4 4 3 2 2 2 3 4 4 3 4 4 6 6 5 4 2 1 1 2 3 1 2 0 2 2 6 3 4 3 5 7 4 3 9 11 11 10 12 13 13 15 14 14 14 14 15 15 17 18 19 19 19 20 20 20 19 19 19 20 21 22 22 24 25 25 26 27 28 28 27 26 26 26 26 27 26 23 20 18 17 17 18 18 15 16 18 18 19 23 28 32 37 35 29 20 13
3 3 2 1 0 1 3 5 4 4 4 3 4 6 5 5 1 1 1 1 3 2 2 1 1 2 5 1 4 2 3 3 2 9 13 11 10 9 11 13 14 14 13 14 15 15 15 16 17 18 19 19 19 20 20 20 19 19 19 20 22 22 22 23 24 24 25 26 27 28 27 27 27 27 28 29 27 23 20 18 18 17 16 17 14 14 15 16 16 20 26 29 34 36 33 24 13
3 1 0 1 2 3 4 5 4 5 4 2 5 7 6 5 2 1 2 0 2 2 4 4 2 2 4 1 3 3 3 5 7 13 13 11 10 9 9 12 16 16 15 16 18 17 17 17 17 18 18 19 20 21 22 22 20 19 19 20 20 20 21 22 23 24 25 26 28 28 28 27 28 28 28 27 25 24 22 19 18 17 16 16 13 12 14 14 14 14 20 25 29 34 34 29 18
4 3 2 1 1 3 4 4 4 4 3 3 7 9 6 3 1 3 1 1 1 2 3 2 2 2 4 2 3 4 4 8 12 14 13 12 11 10 10 14 17 17 19 20 22 19 17 17 17 18 19 20 21 22 23 22 21 19 18 18 19 20 21 22 23 24 25 26 27 29 28 26 27 28 28 25 23 23 21 19 18 18 15 14 12 11 13 14 14 12 14 20 26 32 34 34 25
3 3 1 2 2 2 2 2 4 3 3 4 7 8 6 2 2 2 3 3 4 2 1 3 3 2 2 3 2 3 5 10 13 14 13 12 12 11 11 14 16 16 18 21 22 21 18 17 17 18 19 20 21 22 22 22 20 19 17 18 19 20 21 22 24 25 26 27 28 29 26 24 26 27 27 26 25 23 20 18 17 17 13 12 11 10 12 12 13 12 12 17 23 28 33 35 29
1 2 1 2 1 1 1 0 2 1 3 6 7 7 5 4 3 2 4 4 1 2 4 4 5 4 4 3 3 4 9 12 13 13 13 12 12 10 9 11 12 11 13 18 19 20 21 20 18 18 18 20 21 21 21 22 21 19 18 19 19 20 21 22 24 25 26 28 29 30 25 22 26 27 27 27 27 24 18 17 16 15 13 10 9 10 11 12 12 12 13 17 21 24 30 34 31
2 2 0 2 1 2 1 1 2 3 4 6 8 7 4 4 4 3 5 6 5 5 5 5 7 7 6 5 6 8 11 13 12 12 13 13 12 10 9 9 9 10 12 14 15 17 21 21 19 18 19 20 20 21 21 22 22 22 20 19 19 20 21 22 24 25 27 29 29 31 25 22 26 26 26 25 26 26 20 19 19 15 14 10 8 8 9 10 12 12 14 17 19 21 27 31 31
2 3 1 2 2 2 2 3 3 3 6 5 8 7 2 3 4 3 3 7 8 8 9 9 8 10 9 8 9 11 11 11 10 13 13 13 13 11 11 11 11 13 12 13 15 16 19 20 19 19 19 19 20 20 21 22 23 23 20 19 19 20 20 21 24 25 27 29 29 31 26 22 25 25 25 24 24 26 21 21 23 19 12 6 4 5 6 9 11 12 14 16 17 18 24 29 29
4 3 1 4 3 4 6 7 6 4 7 8 8 5 1 2 3 1 2 5 8 9 10 10 10 10 10 10 10 9 10 10 12 14 14 13 13 12 12 12 12 13 13 15 17 16 17 20 20 19 19 19 19 20 20 21 22 21 21 21 20 19 19 21 23 25 27 29 29 32 29 22 23 24 24 23 22 25 22 20 22 20 20 17 12 7 3 3 6 10 13 16 17 17 21 26 27
4 4 3 3 4 6 10 10 8 8 7 9 7 4 1 0 0 0 3 6 6 6 4 5 6 4 4 6 9 10 13 13 14 13 13 14 12 12 12 13 13 13 14 17 17 15 16 19 19 18 18 19 19 19 19 20 21 21 23 22 20 19 19 20 22 24 26 29 29 31 31 23 21 24 23 22 22 25 23 19 18 20 23 23 20 17 13 10 3 6 10 14 16 16 18 23 25
5 5 4 2 5 6 8 8 8 9 7 8 7 4 1 1 2 2 4 6 4 2 2 0 1 2 2 4 7 10 12 11 12 11 12 13 12 13 13 12 13 13 15 16 16 14 16 18 19 17 17 18 19 19 19 20 20 21 22 22 20 19 19 19 20 23 24 27 29 30 32 25 19 22 23 22 22 25 24 19 17 17 18 19 19 17 16 15 9 5 6 10 13 15 17 20 23
6 6 7 7 6 6 5 7 8 7 7 6 5 2 1 1 4 6 6 5 2 2 1 4 4 5 7 8 9 9 10 10 10 11 11 12 12 14 14 13 13 14 15 15 15 15 15 18 19 18 17 17 17 18 19 19 20 21 21 21 21 20 19 18 19 22 23 26 29 29 31 28 20 19 23 23 22 23 25 21 17 15 16 16 14 12 11 13 11 10 8 8 10 13 17 18 19
4 5 9 11 9 8 6 7 8 6 5 4 2 2 3 4 6 6 8 11 9 4 4 6 6 9 11 12 12 12 12 11 11 11 11 12 14 14 14 14 14 15 14 13 15 15 15 17 18 17 16 15 16 17 18 18 19 20 20 21 21 21 19 19 19 20 22 24 27 28 30 30 25 20 21 24 23 22 22 20 20 17 14 13 9 9 8 8 10 11 10 11 10 11 16 17 17
6 4 7 10 11 10 7 7 7 6 5 3 3 4 5 6 4 3 9 14 14 10 8 8 10 10 11 11 11 11 11 11 11 11 12 13 13 15 15 13 13 14 12 12 15 15 15 16 17 17 16 15 16 16 16 17 18 18 19 20 21 21 20 20 19 19 21 23 25 27 28 30 29 22 20 23 23 21 20 19 20 18 13 11 8 8 9 9 7 6 8 9 10 12 16 18 16
7 5 6 8 9 9 7 6 4 4 2 2 3 7 9 7 5 7 14 15 11 10 10 12 12 10 10 10 9 10 10 10 11 11 11 12 13 15 14 12 12 11 10 12 15 14 14 15 15 16 16 15 15 15 15 16 16 17 17 19 19 20 21 21 19 19 20 21 23 25 27 29 30 26 20 22 23 20 20 18 19 19 15 10 9 11 11 10 8 7 8 9 11 13 17 21 19
5 8 9 8 8 7 6 4 2 1 1 2 3 7 8 5 5 10 13 11 9 11 12 12 11 10 9 9 9 9 10 10 10 11 11 11 12 13 13 12 12 10 10 13 14 13 13 14 13 14 15 15 15 15 15 15 15 15 16 17 18 19 21 20 20 20 19 20 21 23 26 27 29 28 21 20 22 20 20 19 19 20 18 13 11 12 11 12 11 10 9 7 10 12 14 19 19
10 13 12 10 7 5 3 2 1 2 5 4 3 6 8 3 2 5 6 8 10 12 11 11 11 10 9 9 10 10 10 11 10 11 10 10 10 9 9 10 10 10 12 12 11 11 11 12 12 13 14 15 15 15 15 15 15 15 15 16 17 18 19 20 20 20 19 19 20 21 24 25 26 28 24 18 20 20 20 21 21 20 19 16 13 12 10 10 9 8 8 7 8 9 10 14 15
15 15 11 8 5 4 3 3 2 3 5 6 4 7 9 4 3 8 10 10 10 10 9 10 11 11 10 10 11 11 12 12 11 11 11 10 8 7 8 9 10 11 11 10 9 10 11 11 12 13 14 14 14 15 15 16 16 15 15 15 16 17 18 19 19 20 19 18 18 19 22 24 24 26 26 21 18 19 19 20 21 20 18 15 13 14 12 10 8 6 7 6 7 9 9 9 9
12 8 5 4 3 3 5 5 3 3 3 3 5 6 6 7 7 10 12 11 9 9 10 11 12 12 11 11 11 13 14 12 11 12 13 12 9 9 10 9 10 10 9 8 8 10 11 11 11 12 13 14 14 14 14 15 15 15 15 15 15 16 16 18 18 19 19 18 18 18 19 21 22 23 25 24 20 17 17 18 20 19 17 14 13 14 14 12 10 8 7 6 5 8 9 6 6
6 3 1 4 2 2 6 5 3 4 4 2 4 3 2 9 12 10 11 12 9 9 11 11 13 13 12 12 12 13 13 12 12 14 14 13 13 12 11 10 10 10 9 8 8 9 11 11 11 12 13 14 14 13 13 13 15 15 15 15 15 15 16 16 17 18 18 18 17 18 18 18 20 21 22 23 22 18 16 16 18 18 16 13 12 13 14 13 11 10 10 8 6 6 7 7 7
2 1 1 3 2 1 4 3 2 3 2 1 2 2 3 4 11 11 11 11 9 9 11 11 13 12 12 12 12 14 13 13 13 13 14 14 16 15 12 11 10 10 10 10 10 10 10 10 12 13 13 14 14 13 13 13 13 14 15 15 15 15 15 15 16 17 17 17 17 17 18 17 17 19 19 20 21 20 18 15 15 17 16 13 11 11 12 12 11 10 10 8 6 5 5 5 7
2 2 1 3 2 1 3 1 1 1 1 1 1 3 4 2 9 12 11 10 9 9 11 11 12 11 11 12 12 13 13 12 12 13 14 15 16 16 13 12 12 11 11 11 12 12 11 11 12 13 14 13 13 13 13 12 12 13 14 15 15 15 15 15 15 15 16 16 17 17 17 17 16 16 17 18 19 19 20 18 15 14 14 13 12 11 11 12 12 11 11 10 7 7 5 5 6
2 2 2 1 1 1 2 0 1 3 3 3 3 3 4 2 8 12 12 11 11 10 12 12 12 12 11 12 12 12 12 12 12 13 14 14 16 17 15 13 13 13 12 12 13 13 13 13 13 14 14 13 13 13 13 12 12 12 12 13 14 15 15 14 14 15 15 15 16 17 17 16 16 15 15 15 17 17 18 19 17 15 13 11 10 10 11 12 12 11 11 10 9 9 8 7 7
2 2 2 1 1 2 1 1 2 3 3 3 4 4 6 5 5 12 14 13 12 12 13 13 12 12 11 11 11 11 11 11 12 12 12 11 14 18 17 15 14 14 13 13 13 13 13 13 13 14 15 14 13 13 12 12 12 11 12 13 14 16 16 16 15 15 15 15 15 16 16 16 16 15 14 13 14 14 15 16 16 17 16 13 11 9 8 9 11 11 10 10 9 9 10 9 9
2 2 2 2 2 2 1 1 2 3 3 3 3 6 9 10 9 12 16 16 14 14 14 12 12 11 10 10 10 10 10 10 10 11 11 11 13 18 19 18 16 14 14 14 14 13 13 12 13 14 15 15 14 13 13 13 12 12 13 14 15 16 17 17 17 16 14 15 15 15 15 15 15 15 14 13 12 12 13 14 14 15 15 15 14 11 8 7 7 8 9 9 8 8 8 9 8
4 3 2 3 3 1 2 2 1 4 3 5 6 7 9 9 8 9 14 19 17 15 13 12 12 11 11 9 9 9 10 10 10 11 13 13 14 17 18 17 15 14 14 15 15 14 14 13 13 14 14 15 15 15 15 15 14 14 14 13 14 15 16 17 17 16 15 15 15 15 15 15 15 15 14 13 12 11 10 11 12 12 13 13 13 12 11 9 7 6 7 7 6 6 6 7 7
4 4 4 4 2 1 2 2 1 4 3 5 6 6 9 8 8 11 11 17 15 13 12 12 13 12 11 11 10 10 10 10 11 12 12 12 12 13 13 13 13 13 14 15 15 14 14 15 15 15 15 16 16 15 15 15 15 14 14 13 14 14 15 16 16 16 16 15 15 15 15 15 14 14 14 14 13 11 10 9 9 10 10 10 10 11 11 11 10 8 7 7 6 4 4 4 4
4 3 5 3 1 1 2 3 1 2 2 4 4 6 10 8 8 8 9 13 11 12 12 12 13 12 11 10 10 10 9 9 10 12 11 11 11 10 10 10 11 12 13 14 15 15 15 16 16 17 16 16 16 16 14 14 14 14 14 13 14 14 15 15 15 16 15 14 13 13 14 15 14 13 13 14 14 13 11 9 8 8 8 8 9 9 8 8 8 8 7 7 7 5 4 2 1
4 4 4 3 3 3 2 2 2 0 0 4 7 8 11 10 8 5 11 9 7 10 11 10 11 11 10 9 9 9 9 9 9 10 9 11 12 11 11 11 12 12 13 14 15 16 16 17 17 18 18 17 17 17 16 15 14 14 15 14 15 15 15 15 15 15 15 14 14 12 12 13 13 13 13 12 13 13 12 10 9 7 7 6 6 6 6 6 6 6 5 5 5 5 4 2 1
3 3 2 2 4 3 1 0 4 5 2 4 6 7 9 7 3 2 6 6 5 8 9 9 9 9 9 8 9 10 9 9 10 9 8 9 11 11 12 13 14 14 14 15 16 17 18 18 18 18 19 19 19 18 18 17 16 15 15 15 15 15 15 16 16 17 17 18 18 14 11 11 11 12 12 12 11 11 11 11 10 8 7 6 5 4 4 4 3 3 3 2 2 4 4 3 2
3 4 3 1 2 2 3 4 8 7 2 3 6 5 5 2 2 1 2 2 3 7 8 9 11 11 10 10 11 12 11 11 10 10 9 9 10 11 12 13 14 15 15 15 16 17 18 19 19 19 19 19 19 19 18 18 18 17 16 16 16 16 17 17 17 18 20 21 21 19 16 13 12 11 11 11 10 10 10 10 10 9 8 7 5 4 3 3 2 2 1 1 1 3 4 5 5
1 2 2 1 2 3 5 7 7 4 2 2 3 3 4 3 2 3 3 2 4 6 8 9 12 12 12 13 14 14 13 12 10 8 8 10 10 10 11 12 13 15 15 16 16 17 17 18 19 19 20 20 19 19 19 19 18 18 17 17 17 16 16 16 16 17 19 19 20 21 20 18 14 11 10 9 9 9 9 9 9 9 9 8 7 6 4 4 3 2 2 1 1 2 4 5 6
1 2 2 1 2 3 4 6 4 2 2 3 3 3 3 6 2 2 3 2 4 5 7 9 10 11 12 13 13 13 12 11 9 8 8 8 9 10 11 12 13 14 15 16 16 16 16 17 17 17 18 19 19 19 19 19 19 18 18 18 17 16 16 14 14 15 16 17 17 18 19 19 17 13 11 10 9 8 8 8 8 8 8 9 8 8 7 6 5 4 3 3 3 3 4 6 6
1 3 2 2 2 3 3 4 2 1 2 3 5 3 1 5 4 1 3 1 3 5 7 9 12 13 12 12 11 11 10 10 10 9 8 8 9 10 11 12 13 13 14 15 16 16 16 17 17 17 17 17 18 19 19 20 20 19 19 19 18 17 17 16 15 15 15 16 16 15 17 18 18 16 14 12 11 9 8 7 7 7 7 8 8 8 8 8 7 6 6 5 5 6 6 7 7
0 1 1 2 2 3 3 2 4 3 2 3 5 3 1 4 4 1 2 1 3 5 5 5 8 11 12 12 11 10 10 10 11 11 10 10 10 10 11 12 12 13 14 15 16 17 17 17 17 17 17 16 16 17 18 19 19 19 19 19 19 19 18 18 18 17 16 16 16 15 15 16 17 18 16 14 13 12 10 9 8 7 7 7 7 8 8 8 9 9 9 8 8 7 8 8 8
0 1 1 1 1 2 2 2 4 2 3 1 5 3 1 4 5 2 1 2 2 1 3 4 3 2 6 8 9 9 10 11 12 12 12 12 12 13 13 13 13 13 14 15 15 16 17 17 18 18 17 17 16 16 16 17 18 19 19 19 19 19 19 19 20 19 18 18 18 17 16 16 16 17 17 15 14 14 13 12 10 9 8 8 8 8 8 8 9 9 10 10 10 10 10 10 10
3 2 1 1 2 2 2 3 2 2 2 3 4 3 2 2 4 1 1 1 1 3 4 4 4 3 0 3 6 8 9 10 11 13 14 14 15 16 17 17 16 16 16 16 16 16 17 17 18 18 18 17 17 16 16 16 17 18 18 19 19 20 19 19 20 20 19 19 19 19 18 18 17 18 19 18 16 15 15 14 13 12 11 10 10 9 9 9 10 10 11 11 12 12 12 13 13
2 2 1 1 1 1 0 2 1 3 1 3 3 3 2 1 3 1 3 3 3 4 4 5 5 4 2 2 4 5 7 9 10 13 15 17 18 19 19 20 20 19 19 19 19 19 19 19 19 19 18 18 18 18 17 16 16 17 18 19 19 20 20 21 21 20 19 19 20 20 19 18 18 18 19 19 18 17 15 15 15 15 14 13 13 12 12 12 12 12 12 13 13 13 14 15 15
2 2 2 2 2 2 2 2 1 1 2 3 1 2 1 4 5 2 4 4 4 4 4 4 3 1 2 2 4 5 7 9 11 14 16 17 18 19 19 19 19 19 20 20 21 21 22 22 21 20 19 18 18 18 19 18 17 17 18 19 19 20 20 21 22 22 21 20 20 20 20 19 19 18 18 19 19 20 19 17 16 17 16 16 16 16 15 15 15 15 15 15 15 15 15 16 17
2 1 2 2 2 2 2 3 2 1 3 2 0 2 2 3 4 3 5 5 5 4 3 2 1 1 2 4 6 8 9 11 13 14 15 16 17 18 18 18 18 18 18 20 21 23 24 23 23 22 20 18 18 18 18 19 19 18 19 19 20 20 21 21 22 22 22 22 21 21 21 21 21 20 19 19 19 20 21 19 18 18 17 17 17 18 18 18 18 18 18 18 17 17 17 18 18
2 1 2 2 3 2 0 1 1 2 4 3 2 1 2 2 2 3 6 6 5 3 2 2 2 3 4 4 5 7 9 11 12 13 15 16 17 19 19 19 20 19 19 19 20 22 24 24 24 23 21 18 17 17 18 19 19 19 19 20 20 20 21 21 22 22 22 22 22 22 22 22 22 22 21 21 20 20 21 20 20 19 18 18 18 18 19 19 20 20 21 21 20 20 20 20 20
2 1 2 1 1 1 1 1 2 1 2 2 2 2 4 3 1 3 5 4 3 3 2 2 3 4 4 5 5 7 8 9 11 14 16 17 17 18 19 21 21 22 22 22 22 23 24 24 24 23 20 18 17 17 17 18 19 19 19 20 20 20 21 21 22 22 22 23 23 23 23 22 22 22 22 22 21 22 22 22 22 21 20 19 19 19 19 20 21 22 23 23 23 22 22 23 22
1 2 1 2 0 2 2 1 1 2 1 3 2 2 4 2 2 1 3 2 2 4 4 4 4 3 5 6 7 7 7 9 12 14 15 15 15 16 17 18 20 21 22 22 22 23 23 23 22 20 18 17 16 16 17 17 18 18 19 19 20 20 21 21 21 21 21 22 23 23 23 22 22 21 21 21 21 22 22 23 24 24 23 22 21 20 20 20 22 23 24 25 25 24 25 25 25
1 1 2 2 1 2 2 0 2 1 1 3 1 2 5 3 3 3 1 3 3 5 5 5 3 2 3 6 6 5 7 10 12 13 13 13 14 15 16 17 18 18 18 19 19 19 19 19 19 18 17 17 17 17 17 17 18 19 19 20 20 21 21 21 21 20 20 21 22 22 22 22 22 21 21 21 21 22 22 23 24 24 25 25 25 23 22 22 22 24 25 26 26 26 27 28 27
1 1 2 0 2 0 0 1 1 1 2 4 3 2 3 3 4 3 4 5 6 6 5 3 3 4 5 6 7 7 9 10 11 11 11 12 13 15 16 18 18 18 18 17 17 17 17 18 18 17 17 17 17 17 17 17 18 19 20 20 21 21 21 21 21 21 21 21 21 21 22 22 21 21 22 22 22 23 23 23 23 24 25 26 27 27 26 25 25 26 26 26 27 27 29 30 29
2 2 2 1 2 1 1 1 1 1 1 4 4 4 3 4 4 3 7 8 7 7 6 4 6 7 7 8 8 10 10 10 11 11 10 11 13 14 16 18 18 19 19 19 18 17 17 17 18 17 17 18 18 18 18 18 18 18 19 20 20 20 21 21 22 22 22 22 21 21 21 21 21 22 22 23 24 24 24 24 25 25 25 26 27 28 28 29 29 29 29 28 28 28 31 32 31
0 1 1 0 0 1 1 0 1 2 1 2 3 4 5 5 1 2 3 5 7 8 7 7 6 7 8 9 9 9 9 10 11 10 9 11 13 14 16 17 18 19 19 19 19 19 18 18 18 18 18 19 19 19 20 19 19 19 19 19 19 19 19 20 21 22 22 22 21 21 21 21 22 22 22 23 24 25 25 25 26 27 27 27 27 28 28 29 31 32 31 31 30 30 32 33 33
1 2 2 1 1 1 1 1 1 1 1 2 1 3 7 5 2 4 3 3 5 6 8 8 3 6 8 9 10 9 9 10 9 8 9 11 12 14 15 16 18 19 19 19 19 19 19 19 19 19 20 20 20 20 20 20 20 20 20 21 21 21 21 21 21 21 21 21 21 21 22 22 23 23 23 24 25 25 26 26 27 28 28 28 29 29 29 30 31 33 33 33 33 33 34 34 34
Wind_Direction
180 180 175 176 204 320 301 250 252 222 221 73 86 101 71 47 111 100 79 106 108 57 47 54 34 21 17 22 16 28 44 35 60 2 281 288 309 299 311 312 320 325 332 345 341 342 345 347 348 345 346 346 346 344 343 345 345 346 345 345 344 344 344 343 343 342 342 340 337 336 335 334 330 327 323 317 310 308 303 289 275 271 267 255 243 237 236 231 227 236 261 271 248 239 235 229 229
173 164 142 144 197 286 280 218 215 237 165 96 61 66 104 139 104 70 59 64 66 60 50 39 36 37 30 341 314 350 67 62 65 63 257 294 302 280 299 312 322 330 339 349 343 343 347 347 347 345 346 346 346 343 343 344 347 348 346 346 345 345 344 344 344 343 342 341 341 340 338 336 333 329 324 320 313 308 305 299 280 267 266 261 248 240 236 230 223 230 246 262 243 233 233 228 225
169 149 124 347 284 247 270 238 226 270 142 109 67 75 151 122 81 73 70 66 64 59 47 11 359 43 344 271 342 329 119 98 70 60 350 297 265 261 297 315 330 340 343 348 346 347 348 347 347 346 346 346 346 343 343 345 348 348 346 346 345 345 344 345 344 342 342 341 341 339 336 334 331 330 327 323 315 308 304 301 290 272 263 261 254 244 238 233 224 226 230 223 228 228 231 230 224
169 149 133 299 288 249 255 249 247 314 45 85 90 82 73 88 87 86 78 74 68 44 26 357 328 51 351 336 12 333 135 107 320 313 314 291 270 278 308 326 344 346 341 345 349 347 346 346 347 346 345 346 345 344 344 346 347 347 346 346 345 345 344 344 343 341 340 340 338 336 335 334 331 329 328 327 320 311 304 301 296 284 269 262 257 250 241 236 229 228 226 215 220 225 227 228 223
160 152 135 253 275 267 283 272 332 29 42 351 103 92 73 87 101 100 88 87 69 42 21 352 355 60 4 43 9 337 143 91 338 317 304 277 277 293 320 337 349 343 338 345 346 343 344 346 346 344 346 347 346 345 345 346 347 346 345 345 345 345 345 344 342 341 340 338 336 335 334 332 332 330 328 327 323 315 306 302 298 289 277 267 261 256 246 238 231 230 229 221 218 218 219 221 221
130 150 216 283 271 305 309 282 56 78 38 318 105 98 79 86 93 102 109 110 79 60 39 3 13 353 351 158 195 311 211 225 4 294 270 281 286 310 333 340 345 339 340 344 340 340 343 344 344 345 347 347 346 346 345 345 345 345 344 344 344 345 345 343 342 341 340 339 337 336 333 328 328 329 330 326 322 314 307 304 298 290 280 267 257 259 253 242 232 230 230 226 221 209 202 202 214
128 225 229 247 263 308 311 73 65 83 14 354 79 100 86 87 87 109 130 131 133 114 66 22 352 310 239 201 209 207 239 276 330 278 284 301 309 327 334 335 339 341 343 340 338 341 343 343 346 348 348 347 346 345 344 344 344 344 343 343 344 346 345 343 342 341 340 339 337 335 331 328 325 326 330 329 323 314 307 304 300 295 286 264 247 253 253 247 235 228 228 228 224 208 201 193 202
141 234 228 226 269 246 22 72 54 55 67 33 59 73 82 92 93 104 121 106 155 117 109 92 319 291 129 314 206 190 262 305 327 308 311 327 329 324 326 333 338 340 341 340 342 342 342 345 347 349 348 348 346 343 343 343 344 344 342 342 344 345 344 342 343 341 341 340 337 334 330 328 326 325 329 330 325 316 308 303 300 297 290 267 246 247 247 249 240 228 224 225 226 215 211 210 200
177 254 255 228 209 103 55 86 90 74 103 87 75 81 85 95 94 75 114 111 106 87 117 119 313 302 332 307 135 147 230 296 330 334 335 333 323 320 329 336 332 335 341 343 344 342 342 345 348 351 351 348 345 343 343 343 344 344 342 342 344 345 344 343 344 343 342 340 338 335 331 329 327 326 328 327 324 318 309 302 297 295 292 280 254 244 242 243 242 230 221 222 226 221 219 217 202
240 242 278 267 157 114 105 109 107 90 94 88 96 109 101 98 104 50 359 93 84 70 110 102 269 282 307 302 110 148 215 292 333 341 318 317 320 327 336 337 331 334 342 344 344 342 342 346 350 352 351 348 347 344 343 343 344 343 342 343 344 346 345 344 345 344 342 341 341 337 333 330 331 331 329 328 328 322 312 301 295 291 289 286 265 245 238 237 239 230 221 219 223 224 225 218 197
256 218 283 284 164 146 133 108 98 101 106 105 103 112 111 99 109 127 289 85 87 109 136 235 248 298 298 277 118 180 267 313 333 318 309 316 328 335 336 339 338 337 340 343 347 345 344 351 352 352 351 349 346 345 345 346 346 345 343 344 346 347 345 346 346 344 343 343 343 340 335 334 337 335 334 337 335 326 317 305 295 291 286 285 273 249 239 237 239 229 222 219 220 223 225 220 193
276 187 239 255 160 66 102 103 109 112 117 156 130 129 127 116 159 158 195 114 113 204 149 132 298 324 286 222 112 206 300 318 291 320 322 324 332 338 338 345 345 337 339 346 350 351 350 352 353 352 350 348 348 349 350 351 350 347 345 347 348 346 345 348 348 345 345 345 346 343 338 338 339 339 342 343 338 330 325 316 305 300 292 284 276 257 243 241 242 231 223 220 219 221 221 221 206
313 219 235 258 324 54 101 95 110 128 137 172 124 130 137 138 204 31 52 123 178 224 132 118 3 320 281 21 107 177 193 223 283 320 325 323 328 333 336 348 348 339 343 351 351 353 354 350 351 351 348 349 351 353 355 355 352 349 347 346 345 346 347 349 349 348 348 348 351 349 343 340 340 344 349 346 339 336 331 325 313 305 294 281 273 256 242 236 238 232 224 220 219 219 219 220 214
3 355 351 216 321 81 100 100 139 155 127 101 106 129 147 149 126 46 346 252 136 121 137 149 328 291 277 315 142 156 201 247 293 319 322 321 329 338 341 348 348 345 345 344 343 346 352 350 348 348 349 350 353 356 357 356 353 349 345 343 346 350 350 350 352 352 351 352 355 352 344 341 344 350 355 349 342 339 333 327 316 307 295 275 270 255 237 230 229 225 220 218 217 217 217 220 217
8 335 322 93 82 89 55 111 161 169 119 109 119 141 155 159 114 91 274 291 68 78 249 267 261 234 292 335 125 171 245 273 302 316 319 322 332 346 350 345 345 348 339 330 332 336 342 349 347 347 350 351 354 356 357 357 355 350 345 347 351 353 352 352 354 354 353 355 358 355 346 346 352 357 1 358 353 345 333 328 319 314 303 274 263 247 230 225 224 221 215 212 213 214 215 218 220
186 311 268 100 80 115 3 153 149 148 107 118 133 146 155 160 160 175 247 258 320 279 268 263 231 232 274 293 299 264 265 285 304 311 317 324 329 343 352 340 337 339 325 318 325 327 330 340 344 346 350 351 352 354 355 358 358 355 353 352 352 354 355 355 355 355 356 357 358 355 351 356 0 3 6 3 0 355 342 336 326 313 303 280 255 237 227 223 218 213 208 206 207 208 210 216 218
165 303 212 122 86 89 343 347 108 140 107 115 143 152 165 146 166 219 250 248 260 264 251 249 238 247 260 251 266 272 275 291 305 312 319 323 326 341 344 331 321 321 319 319 322 318 319 330 341 346 349 350 349 351 354 358 0 1 358 352 353 357 356 356 357 355 358 360 359 356 357 7 5 4 6 2 2 4 359 353 345 321 299 279 251 234 229 222 208 200 199 202 204 202 205 211 214
37 291 205 94 65 59 358 22 57 136 129 137 155 163 203 122 153 211 265 242 228 239 248 244 242 252 260 260 261 268 277 291 305 307 312 316 327 342 336 327 320 321 326 322 319 316 318 329 341 346 347 346 346 350 353 358 1 360 359 356 358 358 355 357 358 357 359 1 2 1 4 14 8 4 8 6 6 9 6 359 353 345 334 315 266 231 216 213 200 190 193 197 197 196 200 204 209
28 313 13 44 53 51 27 44 35 44 120 137 142 157 209 89 135 192 282 252 219 232 247 223 228 252 257 262 261 259 265 279 294 298 306 315 330 337 325 321 319 322 323 320 327 333 331 332 338 343 343 342 345 349 351 357 359 358 1 3 0 356 357 360 359 359 360 1 5 6 7 15 12 9 13 13 12 13 13 4 2 20 35 36 39 50 88 162 189 188 190 190 187 190 196 198 203
25 8 50 67 107 73 39 52 41 32 101 129 122 137 198 104 160 290 290 295 257 243 269 198 208 250 245 258 256 253 261 276 293 302 311 317 326 321 313 316 317 320 318 324 337 339 329 325 333 343 341 340 343 347 349 353 355 358 4 5 0 358 2 1 0 3 1 1 5 7 7 11 16 15 17 19 20 19 20 16 19 47 53 44 44 43 48 52 78 176 185 185 183 187 190 191 199
29 29 55 71 114 92 43 56 59 40 73 108 115 140 197 206 216 256 273 298 267 178 36 219 257 320 237 250 260 268 275 283 295 301 305 308 309 304 306 311 312 315 317 329 337 332 326 325 335 344 340 339 341 343 347 349 351 358 3 3 2 3 4 2 4 4 3 4 5 7 7 8 18 19 21 25 26 25 25 25 28 47 56 51 47 39 37 34 44 120 155 171 174 179 181 184 194
62 47 44 35 72 98 72 78 79 52 58 94 124 147 343 269 245 243 239 258 255 95 10 275 273 269 249 245 253 265 271 279 286 287 290 292 293 295 301 305 310 313 319 333 337 337 333 326 335 342 340 339 339 342 345 347 350 355 359 360 3 6 4 5 8 5 5 8 6 6 7 9 17 23 26 28 29 30 30 33 36 47 55 57 58 55 48 32 43 74 94 127 144 163 166 170 181
96 66 50 44 66 93 96 96 86 60 50 65 74 355 331 281 264 241 227 239 250 265 277 270 255 252 259 260 261 262 264 271 273 273 277 280 285 291 299 308 314 315 324 337 341 340 330 326 337 341 340 341 341 344 345 346 349 352 355 358 2 4 5 9 9 6 9 11 7 8 9 10 13 20 26 26 29 34 33 38 43 49 55 56 67 85 90 73 62 62 69 88 101 132 147 154 169
97 102 71 64 74 85 93 102 89 62 48 25 355 314 284 266 271 263 248 249 255 264 257 251 255 262 269 269 269 267 267 272 273 279 284 286 291 296 305 316 316 319 333 337 336 334 329 336 342 339 343 347 345 346 346 347 350 350 351 357 360 1 6 11 9 9 13 11 9 10 12 11 11 17 25 22 27 33 34 42 45 42 43 45 58 87 100 98 86 83 92 96 104 133 150 156 168
70 103 104 90 85 87 92 95 82 60 45 341 310 276 267 253 264 279 270 265 257 249 238 243 257 266 269 270 271 269 270 274 278 284 287 289 292 296 309 322 325 333 336 326 329 334 338 344 342 340 346 349 347 347 349 351 351 350 352 356 357 360 7 10 8 12 15 11 10 12 16 15 11 15 26 25 26 31 33 42 51 43 34 40 67 88 94 93 88 90 109 130 138 149 162 161 167
81 112 114 107 101 100 97 89 81 54 263 295 298 277 273 246 261 280 270 259 233 225 231 244 254 257 263 269 269 266 267 269 273 277 278 283 289 300 316 326 333 338 323 319 331 339 342 344 342 345 349 352 351 350 352 354 354 353 354 357 357 1 6 8 10 14 15 12 11 13 19 19 14 15 24 34 32 31 35 40 53 54 45 43 61 80 87 92 93 85 89 124 142 146 163 166 171
113 113 105 107 111 109 105 104 159 261 250 249 273 280 282 264 260 275 237 210 211 220 231 240 245 252 257 258 260 262 262 267 270 273 279 287 296 305 310 312 315 312 310 322 337 340 344 345 345 349 351 352 352 352 354 354 356 356 356 357 358 1 4 7 11 14 15 13 11 14 20 21 20 18 19 36 40 34 39 43 47 52 55 52 49 58 70 80 89 96 95 110 132 137 161 172 175
120 117 101 108 123 129 165 196 207 261 242 233 263 277 276 255 223 241 214 199 208 213 223 228 235 247 250 249 254 259 263 273 277 275 284 296 302 296 288 288 291 298 312 329 341 343 345 346 347 348 349 350 350 351 353 355 357 357 357 356 358 1 3 6 10 14 16 15 12 14 21 20 23 25 19 25 39 39 43 50 49 47 54 60 51 53 65 68 67 89 111 125 135 136 150 170 177
132 136 101 121 157 171 194 208 211 246 231 247 298 294 260 210 225 241 211 202 208 209 219 224 232 242 246 249 251 258 268 277 277 277 287 296 296 296 298 297 299 309 321 330 338 342 341 345 348 346 346 348 349 350 352 356 356 356 358 357 358 359 1 4 8 14 16 16 15 15 21 20 22 29 25 22 29 38 43 51 56 51 52 57 53 56 65 67 66 73 86 101 127 140 145 163 181
157 191 80 140 192 207 186 193 213 230 230 287 334 325 250 204 220 223 195 203 209 210 225 230 236 242 245 250 253 259 268 272 272 278 287 292 293 297 302 302 306 316 323 327 334 339 339 343 347 346 345 345 348 350 351 354 355 356 357 358 360 359 0 2 5 12 15 17 18 18 20 20 23 28 29 27 26 29 37 49 57 54 53 59 56 60 68 70 75 80 79 82 101 132 149 167 180
169 55 56 177 236 204 159 180 228 231 227 316 1 279 275 196 195 192 188 200 202 213 234 239 242 246 248 250 257 264 269 273 275 279 280 282 289 296 301 304 308 313 320 327 332 337 340 340 343 345 346 345 347 351 352 352 353 355 355 358 1 360 1 0 2 8 11 14 19 22 20 18 23 27 28 32 31 29 31 39 52 55 56 63 62 63 76 83 89 95 95 99 114 130 136 154 173
145 72 312 213 231 169 145 196 275 328 306 240 262 266 289 106 158 182 193 194 198 224 241 246 248 249 251 254 260 268 273 276 277 276 276 280 288 295 302 307 308 309 313 320 327 333 337 339 341 344 346 346 347 349 350 350 350 353 354 355 357 359 1 360 1 5 6 10 16 21 23 18 20 26 27 31 34 34 33 32 38 49 56 65 66 64 72 80 85 92 101 106 124 142 138 131 144
172 198 225 186 266 211 160 201 335 340 323 234 212 258 305 54 149 183 201 201 205 229 244 249 254 253 254 260 264 269 274 275 275 275 279 285 286 290 301 309 309 309 311 314 321 327 333 337 338 342 344 343 344 346 347 346 347 350 349 350 353 356 359 2 5 4 2 5 11 17 22 20 18 22 25 29 33 36 38 37 35 37 43 54 63 68 71 74 75 79 89 97 110 127 133 132 137
179 229 241 141 260 240 183 71 359 306 274 225 202 231 274 282 219 205 205 207 208 225 245 249 252 256 258 262 265 270 275 278 284 285 284 283 279 284 299 311 311 310 310 313 317 321 327 331 333 338 340 339 340 342 346 346 343 342 344 348 350 352 355 360 5 5 2 1 7 13 15 17 18 19 20 24 32 36 41 42 39 39 39 39 45 57 67 74 78 78 79 85 98 114 123 130 135
353 341 329 348 271 241 122 100 13 321 259 236 241 246 264 274 265 230 207 204 208 222 241 249 250 253 255 260 268 272 275 281 287 289 284 278 275 282 295 307 311 312 312 313 317 320 324 326 329 335 337 337 338 340 344 346 344 343 345 347 346 347 349 351 356 359 2 3 4 8 9 11 13 16 17 18 23 32 42 45 43 43 43 41 41 46 52 60 73 78 80 83 92 106 117 128 134
318 324 326 312 294 307 79 103 42 353 304 255 246 244 265 271 275 265 221 202 205 220 235 247 248 244 242 247 258 265 271 279 284 288 290 288 284 287 296 303 308 314 317 316 318 320 322 322 324 330 334 336 338 339 341 343 346 345 342 340 340 341 340 339 343 348 359 5 2 3 4 5 8 10 12 13 15 20 33 44 46 47 48 48 47 48 52 52 52 64 77 81 88 98 106 117 128
295 308 288 267 289 8 80 87 19 354 324 260 240 246 271 269 270 277 229 191 195 217 232 244 243 239 242 240 236 246 262 277 290 300 304 303 300 297 300 304 311 319 323 322 322 323 323 322 323 327 330 332 335 336 337 339 341 340 337 334 334 335 333 333 336 340 349 358 360 360 359 1 5 5 6 7 9 12 19 30 42 48 52 55 55 53 54 56 53 55 67 74 75 82 97 114 131
314 305 286 281 2 342 62 76 272 6 356 273 312 308 284 272 269 259 181 168 195 218 228 241 237 233 234 230 226 239 257 274 298 313 316 317 319 318 313 314 319 325 329 327 326 328 327 326 328 327 325 326 329 331 333 335 335 335 336 335 332 333 333 332 333 334 337 345 354 357 356 358 1 2 3 2 1 4 8 15 26 37 46 53 58 57 56 61 58 50 59 74 76 73 75 91 140
319 283 285 332 5 325 22 87 231 343 296 286 340 327 290 278 268 214 155 169 210 212 220 229 225 222 219 220 224 235 254 274 302 315 310 308 315 320 323 325 327 331 337 335 331 331 329 330 331 329 326 325 326 327 328 331 332 332 335 337 335 334 335 335 335 333 332 337 344 351 353 353 356 360 1 359 357 357 358 3 10 18 28 37 50 59 56 57 62 58 61 74 81 90 92 91 91
333 337 352 17 17 353 275 301 319 314 284 285 309 297 288 288 271 144 153 184 204 203 218 219 210 204 201 212 224 234 257 279 302 314 305 297 300 309 318 324 328 333 337 338 339 338 336 336 335 332 330 328 326 325 325 327 329 330 332 335 335 337 340 340 338 334 332 334 335 339 347 348 352 358 358 355 353 352 351 353 357 2 9 14 23 41 52 48 49 53 55 70 102 125 131 150 175
27 20 50 67 1 338 257 298 317 310 276 272 300 302 297 278 154 145 166 185 235 226 225 228 223 215 210 221 231 244 265 279 295 313 315 306 301 301 307 312 319 326 330 335 342 343 341 341 340 337 333 330 327 325 323 323 324 326 328 331 335 339 342 340 336 331 329 331 330 331 336 341 345 348 349 349 348 347 347 346 347 351 352 354 358 3 15 16 14 22 25 52 160 167 164 176 191
23 343 28 87 306 300 290 305 318 339 345 293 354 16 311 290 182 176 164 185 241 217 213 232 235 233 235 241 247 255 268 278 289 313 323 319 315 309 306 307 312 320 326 332 336 337 338 339 338 338 336 333 331 327 324 322 321 323 324 327 331 334 337 337 333 328 326 327 326 325 327 330 333 335 335 338 342 343 342 340 340 341 342 341 341 341 340 337 330 324 320 307 261 222 202 198 194
302 259 300 332 304 296 299 315 344 40 297 290 43 78 283 306 313 120 115 197 213 184 208 234 234 237 243 249 257 260 265 274 286 307 324 328 330 329 324 319 316 319 323 326 329 329 329 330 331 333 334 334 333 330 327 324 322 322 321 321 323 324 327 330 331 327 325 324 323 322 320 321 325 327 326 326 331 334 335 336 333 331 332 331 330 330 328 323 317 307 297 283 270 256 240 233 218
235 227 266 306 303 289 303 328 315 240 282 332 21 71 209 291 293 19 57 278 236 215 224 228 223 228 236 244 255 256 256 263 273 292 312 326 335 338 337 333 327 327 327 328 330 331 329 328 326 326 329 331 332 331 329 326 325 324 323 321 320 320 319 321 323 323 324 324 323 322 319 319 321 324 325 322 322 324 325 325 324 322 320 319 319 318 319 318 315 309 299 283 269 260 254 254 250
148 174 250 314 327 293 303 309 265 265 42 4 341 26 110 272 281 310 25 359 276 249 228 210 212 220 230 238 249 254 253 256 267 283 298 313 325 331 333 336 336 336 336 335 334 333 332 331 328 325 325 325 326 328 328 327 327 326 327 325 323 321 318 316 316 318 322 324 324 325 324 321 321 323 324 322 319 319 319 317 314 311 307 304 304 302 302 303 302 301 299 292 284 275 266 262 257
341 16 258 280 302 278 271 271 274 328 64 250 297 353 51 280 287 287 354 6 314 280 100 95 107 192 232 235 245 253 256 262 274 286 295 303 313 319 322 327 333 336 336 337 337 335 333 331 328 325 324 322 320 321 322 325 325 324 326 326 325 324 322 317 314 316 319 320 322 325 326 325 325 325 326 326 324 320 316 313 310 305 301 296 293 290 287 286 286 287 287 287 286 283 279 274 267
316 322 220 196 245 244 217 245 278 24 22 245 268 323 48 294 283 218 149 176 113 78 80 93 86 66 252 247 258 257 260 269 280 292 302 309 313 316 316 318 323 327 330 335 337 336 335 334 330 327 325 323 320 317 317 319 320 320 322 323 322 323 323 321 318 318 318 316 317 321 323 325 326 326 327 328 328 324 317 313 310 306 301 295 290 286 281 279 277 277 276 276 278 277 276 277 274
303 276 253 80 295 281 78 312 5 70 306 251 252 331 51 211 262 181 148 153 102 77 73 84 80 63 49 341 294 276 270 272 278 289 302 312 317 319 318 317 317 318 321 326 330 331 332 333 331 328 327 324 321 317 316 317 316 316 318 318 318 320 321 321 321 320 319 316 315 316 317 319 321 322 323 324 326 325 321 318 314 309 304 299 294 289 284 281 277 273 272 270 270 270 270 271 270
255 291 337 35 9 353 25 340 7 94 256 236 165 1 7 225 240 174 128 121 94 91 101 101 93 57 19 329 307 298 290 291 294 299 308 316 321 324 324 322 320 316 314 315 318 322 325 326 327 327 327 324 321 319 318 318 318 317 316 315 316 317 317 317 318 320 320 318 315 313 312 312 313 315 315 317 320 320 319 320 316 312 308 303 298 293 289 286 282 279 276 273 270 268 268 267 266
313 346 26 58 62 25 341 328 1 2 267 248 33 342 298 262 252 170 132 134 128 123 130 148 243 294 312 311 316 318 317 319 319 319 321 323 324 324 321 322 321 318 314 310 310 313 316 320 323 324 325 323 319 318 319 319 320 319 316 315 316 315 315 315 315 317 319 319 317 314 312 311 311 311 311 311 312 310 311 313 312 310 310 306 301 296 292 288 286 283 281 279 276 273 270 268 267
300 177 109 100 110 124 238 316 288 276 284 295 338 318 213 249 263 157 135 142 149 150 172 212 277 293 296 302 320 332 335 337 335 332 329 326 323 320 317 315 314 315 314 309 307 308 310 315 320 321 322 322 320 319 318 318 319 319 318 317 317 315 314 314 314 315 316 316 317 315 314 315 314 314 313 311 308 305 303 304 305 305 305 304 302 299 295 291 288 285 283 281 280 278 275 273 271
293 51 76 91 115 136 148 137 186 210 328 308 271 235 212 191 152 115 117 134 168 175 205 245 278 289 291 293 309 331 339 341 338 334 330 328 324 319 315 311 308 308 309 308 308 308 309 314 318 319 319 319 320 319 319 320 321 321 320 320 319 318 317 315 315 315 315 314 314 313 314 316 316 316 315 314 311 306 304 302 300 299 299 299 298 297 295 292 289 286 284 283 281 280 279 276 275
317 30 35 248 285 100 114 24 8 100 54 285 252 275 292 344 34 64 117 133 164 161 196 235 253 275 284 296 314 332 340 338 333 334 338 338 335 331 325 320 316 313 311 310 311 310 312 316 318 318 318 319 319 319 320 321 321 321 320 320 320 319 319 318 317 316 314 313 311 312 313 312 313 313 312 312 310 307 306 303 301 300 298 295 293 291 290 289 287 285 284 283 283 281 279 278 276
77 68 243 248 31 76 117 17 351 40 299 287 268 287 302 333 330 300 143 148 169 162 185 212 221 265 293 317 341 348 340 336 336 342 349 349 348 347 345 342 338 332 326 322 320 320 321 323 323 321 319 320 320 320 321 322 321 321 320 319 317 318 319 319 319 317 314 311 310 311 310 310 310 310 307 306 304 303 302 302 301 300 299 297 294 291 288 285 283 283 283 283 283 281 279 277 276
172 242 275 70 97 51 334 92 3 346 306 294 304 320 295 240 235 234 191 197 187 163 165 156 70 32 5 358 357 341 333 342 351 353 352 355 1 1 0 0 357 353 347 340 334 331 328 328 328 326 323 323 323 322 320 319 319 318 317 317 316 316 317 317 317 317 314 312 312 312 310 310 311 308 306 303 301 300 299 298 298 298 297 296 295 294 291 288 284 282 281 281 281 281 279 278 276
281 310 336 29 124 168 222 137 160 189 280 300 315 334 297 241 223 188 195 201 172 150 153 120 69 32 7 355 344 334 338 355 2 360 360 7 13 12 10 8 6 5 2 357 351 344 338 334 331 329 328 326 324 322 319 316 315 314 314 316 316 314 315 315 316 316 315 315 316 315 313 313 312 309 308 306 303 301 300 298 296 295 294 293 292 292 292 290 288 285 283 281 280 279 278 279 278
278 32 77 15 62 122 182 117 137 154 165 290 309 305 273 256 335 59 173 181 150 143 147 123 79 20 355 345 337 334 345 2 4 6 15 19 19 17 14 10 8 8 7 4 0 355 351 346 341 338 335 331 327 323 320 317 314 313 314 314 314 313 313 313 312 312 313 315 317 316 316 315 312 311 311 309 307 306 305 303 300 297 295 294 292 290 290 289 288 287 286 284 282 280 278 278 278
152 149 151 170 170 118 74 340 312 105 143 190 205 284 273 268 356 38 68 86 94 112 128 129 94 355 347 343 337 336 348 2 6 14 23 21 18 15 10 8 5 4 3 1 358 355 353 350 347 343 340 337 332 328 324 319 314 312 311 311 310 310 310 309 308 308 308 310 312 313 313 311 308 309 310 308 307 308 307 305 303 301 300 298 295 293 292 290 287 286 286 285 284 283 281 280 279